Hourly Data Report for June 17, 2017

BORDEN AWOS
ONTARIO

44°16'20.000" N
79°54'42.000" W
222.50 m
611B002
71534
YBN

Download Data

Hourly Data (June 2017)
Hourly Data Report for June 17, 2017
TIME
LST
Temp Definition
°C
Dew Point Definition
°C
Rel Hum Definition
%
Precip. Amount Definition
mm

Wind Dir Definition
10's deg

Wind Spd Definition
km/h
Visibility Definition
km
Stn Press Definition
kPa
Hmdx Definition


Wind Chill Definition


Weather Definition


00:00 19.4 16.8 85   17 7 14.5 98.23     LegendNANA
01:00 19.1 17.1 88   19 11 14.5 98.21     LegendNANA
02:00 17.7 16.6 93   21 6 14.5 98.18     LegendNANA
03:00 16.7 15.7 94   20 7 14.5 98.17     LegendNANA
04:00 16.7 15.5 93   21 7 14.5 98.19     LegendNANA
05:00 15.6 15.1 97     0 14.5 98.20     LegendNANA
06:00 18.7 16.7 88   18 7 14.5 98.21     LegendNANA
07:00 20.3 17.1 82   16 7 14.5 98.21 26   LegendNANA
08:00 24.3 17.9 68   19 15 14.5 98.21 30   LegendNANA
09:00 24.8 18.1 66   17 17 14.5 98.19 31   LegendNANA
10:00 25.7 18.7 65   18 17 14.5 98.18 32   LegendNANA
11:00 27.6 19.1 60   18 13 14.5 98.11 34   LegendNANA
12:00 26.4 18.6 62   18 15 14.5 98.10 33   LegendNANA
13:00 21.1 20.3 95   18 4 14.5 98.14 29   LegendNANA
14:00 22.4 20.9 91   16 17 14.5 98.10 31   Rain
15:00 22.6 20.3 87   13 20 14.5 98.04 30   LegendNANA
16:00 22.6 19.7 84   15 17 14.5 98.02 30   LegendNANA
17:00 22.9 19.6 82   15 11 14.5 97.96 30   LegendNANA
18:00 23.0 20.2 84   7 6 14.5 97.92 31   LegendNANA
19:00 22.8 20.0 84   15 11 14.5 97.86 30   LegendNANA
20:00
21:00 19.9 19.4 97   10 9 8.0 97.93     Moderate Rain
22:00 20.1 19.1 94   18 15 14.5 97.98 27   Rain
23:00 19.9 18.7 93   18 15 14.5 97.93     LegendNANA

Notes on Data Quality.

Legend

  • E = Estimated
  • M = Missing
  • NA = Not Available*
  • [empty] = Indicates an unobserved value
Date modified: